SCP
-0 -0 -0 -0 -0 -0 -0 -0 -0 0 0 0 0 0 0 -0 -0 0 0 0 0 0 0 0 0 0 0 0 0 0 0 0 0 0 0 0 0 0 0 0 0 0 0 0 0
-0 -0 -0 -0 -0 -0 -0 -0 -0 -0 0 0 0 0 0 -0 0 0 0 0 0 0 0 0 0 0 0 0 0 0 0 0 0 0 0 0 0 0 0 0 0 0 0 0 0
-0 -0 -0 -0 -0 -0 -0 -0 -0 -0 -0 0 0 0 0 0 0 0 0 0 0 0 0 0 0 0 0 0 0 0 0 0 0 0 0 0 0 0 0 0 0 0 0 0 0
0 0 -0 -0 -0 -0 -0 -0 -0 -0 0 0 0 0 0 0 0 0 0 0 0 0 0 0 0 0 0 0 0 0 0 0 0 0 0 0 0 0 0 0 0 0 0 0 0
0 0 0 -0 -0 -0 -0 -0 -0 -0 -0 -0 0 0 0 0 0 0 0 0 0 0 0 0 0 0 0 0 0 0 0 0 0 0 0 0 0 0 0 0 0 0 0 0 0
0 0 0 0 -0 -0 -0 -0 -0 -0 -0 0 0 0 0 0 0 0 0 0 0 0 0 0 0 0 0 0 0 0 0 0 0 0 0 0 0 0 0 0 0 0 0 0 0
0 0 0 0 0 -0 -0 -0 -0 -0 -0 0 0 0 0 0 0 0 0 0 0 0 0 0 0 0 0 0 0 0 0 0 0 0 0 0 0 0 0 0 0 0 0 0 0
0 0 0 0 0 0 -0 -0 -0 -0 0 0 0 0 0 0 0 0 0 0 0 0 0 0 0 0 0 0 0 0 0 0 0 0 0 0 0 0 0 0 0 0 0 0 0
0 0 0 0 0 0 0 -0 0 -0 0 0 0 0 0 0 0 0 0 0 0 0 0 0 0 0 0 0 0 0 0 0 0 0 0 0 0 0 0 0 0 0 0 0 0
0 0 0 0 0 0 0 0 -0 0 0 0 0 0 0 0 0 0 0 0 0 0 0 0 0 0 0 0 0 0 0 0 0 0 0 0 0 0 0 0 0 0 0 0 0
0 0 0 0 0 0 0 -0 -0 0 0 0 0 0 0 0 0 0 0 0 0 0 0 0 0 0 0 0 0 0 0 0 0 0 0 0 0 0 0 0 0 0 0 0 0
0 0 0 0 0 0 0 -0 -0 0 0 0 0 0 0 0 0 0 0 0 0 0 0 0 0 0 0 0 0 0 0 0 0 0 0 0 0 0 0 0 0 0 0 0 0
0 0 0 0 0 0 0 0 0 0 0 0 0 0 0 0 0 0 0 0 0 0 0 0 0 0 0 0 0 0 0 0 0 0 0 0 0 0 0 0 0 0 0 0 0
0 0 0 0 0 0 0 0 0 0 0 0 0 0 0 0 0 0 0 0 0 0 0 0 0 0 0 0 0 0 0 0 0 0 0 0 0 0 0 0 0 0 0 0 0
0 0 0 0 0 0 0 0 0 0 0 0 0 0 0 0 0 0 0 0 0 0 0 0 0 0 0 0 0 0 0 0 0 0 0 0 0 0 0 0 0 0 0 0 0
0 0 0 0 0 0 0 0 0 0 0 0 0 0 0 0 0 0 0 0 0 0 0 0 0 0 0 0 0 0 0 0 0 0 0 0 0 0 0 0 0 0 0 0 0
0 0 0 0 0 0 0 0 0 0 0 0 0 0 0 0 0 0 0 0 0 0 0 0 0 0 0 0 0 0 0 0 0 0 0 0 0 0 0 0 0 0 0 0 0
0 0 0 0 0 0 0 0 0 0 0 0 0 0 0 0 0 0 0 0 0 0 0 0 0 0 0 0 0 0 0 0 0 0 0 0 0 0 0 0 0 0 0 0 0
0 0 0 0 0 0 0 0 0 0 0 0 0 0 0 0 0 0 0 0 0 0 0 0 0 0 0 0 0 0 0 0 0 0 0 0 0 0 0 0 0 0 0 0 0
0 0 0 0 0 0 0 0 0 0 0 0 0 0 0 0 0 0 0 0 0 0 0 0 0 0 0 0 0 0 0 0 0 0 0 0 0 0 0 0 0 0 0 0 0
0 0 0 0 0 0 0 0 0 0 0 0 0 0 0 0 0 0 0 0 0 0 0 0 0 0 0 0 0 0 0 0 0 0 0 0 0 0 0 0 0 0 0 0 0
0 0 0 0 0 0 0 0 0 0 0 0 0 0 0 0 0 0 0 0 0 0 0 0 0 0 0 0 0 0 0 0 0 0 0 0 0 0 0 0 0 0 0 0 0
0 0 0 0 0 0 0 0 0 0 0 0 0 0 0 0 0 0 0 0 0 0 0 0 0 0 0 0 0 0 0 0 0 0 0 0 0 0 0 0 0 0 0 0 0
0 0 0 0 0 0 0 0 0 0 0 0 0 0 0 0 0 0 0 0 0 0 0 0 0 0 0 0 0 0 0 0 0 0 0 0 0 0 0 0 0 0 0 0 0
0 0 0 0 0 0 0 0 0 0 0 0 0 0 0 0 0 0 0 0 0 0 0 0 0 0 0 0 0 0 0 0 0 0 0 0 0 0 0 0 0 0 0 0 0
0 0 0 0 0 0 0 0 0 0 0 0 0 0 0 0 0 0 0 0 0 0 0 0 0 0 0 0 0 0 0 0 0 0 0 0 0 0 0 0 0 0 0 0 0
0 0 0 0 0 0 0 0 0 0 0 0 0 0 0 0 0 0 0 0 0 0 0 0 0 0 0 0 0 0 0 0 0 0 0 0 0 0 0 0 0 0 0 0 0
Wind_Speed_500mb
27 30 33 37 40 42 44 47 48 52 54 53 53 41 16 21 25 19 26 23 19 18 15 12 6 11 6 5 5 3 7 5 10 6 8 17 6 14 20 44 44 26 34 32 13
26 29 31 34 37 40 42 44 46 49 52 51 49 39 7 7 18 26 24 25 24 24 22 19 17 10 1 2 3 7 6 3 4 4 6 5 10 3 11 23 42 48 33 16 5
27 30 32 33 35 37 39 41 43 47 50 51 47 38 5 4 5 11 20 22 23 21 23 21 16 12 6 4 3 2 7 2 7 15 13 8 4 7 25 6 7 43 39 21 15
28 29 31 33 35 36 37 39 41 43 46 48 43 30 6 2 1 4 10 20 19 21 23 16 14 4 4 4 6 2 8 1 5 14 10 4 4 9 19 19 34 33 32 26 27
27 30 32 33 35 35 36 37 39 41 43 45 39 24 1 2 2 3 4 9 19 22 19 18 16 10 4 7 2 8 6 4 3 8 6 3 3 9 39 45 33 32 24 26 24
27 29 33 35 36 36 35 37 38 39 42 42 33 17 6 3 6 7 3 4 15 23 24 19 13 11 9 7 3 2 6 10 3 13 8 7 4 9 41 44 36 28 31 22 16
29 30 32 36 38 38 37 36 38 39 38 37 24 10 8 12 9 9 4 3 13 20 23 16 16 8 10 10 5 1 5 7 11 14 7 5 2 14 52 43 46 38 29 22 19
29 32 33 34 39 40 40 39 39 37 36 25 19 8 7 13 13 10 7 6 13 16 21 12 18 8 2 14 8 4 5 4 9 21 10 9 12 13 56 54 49 44 37 33 26
31 32 34 34 37 41 42 42 39 38 22 17 11 9 7 8 16 17 10 9 16 13 19 11 10 5 2 4 9 8 7 6 4 24 9 9 13 20 36 58 53 46 39 34 23
32 32 32 34 35 41 43 44 35 20 4 13 5 7 9 8 13 18 18 12 9 15 12 10 0 5 7 7 6 8 9 9 10 6 14 14 18 14 22 49 55 46 38 26 18
35 33 31 31 32 36 43 42 33 7 30 22 32 33 36 32 25 19 14 9 1 5 6 10 6 9 10 4 5 7 9 14 13 8 10 14 16 21 23 39 51 47 41 31 22
36 33 30 28 28 28 27 19 17 17 26 40 39 39 36 26 9 13 11 6 4 2 6 12 9 10 11 9 10 13 14 16 17 6 2 13 23 22 24 23 59 56 43 34 23
34 34 29 25 23 21 19 19 22 26 13 12 8 8 6 14 7 12 7 4 5 6 4 10 9 8 7 6 8 10 12 10 15 10 13 16 16 10 2 28 49 43 35 26 19
33 33 29 22 17 9 11 17 22 27 8 11 4 4 6 7 4 11 7 3 4 4 4 10 6 7 4 9 12 11 6 4 11 9 8 5 17 5 12 16 18 43 38 27 18
36 33 28 18 13 11 10 11 17 10 9 7 5 5 7 7 1 3 6 1 6 8 9 17 8 12 9 10 10 11 2 10 10 17 7 11 9 12 20 17 21 25 31 25 17
40 34 28 21 17 12 8 7 10 9 14 6 9 7 3 7 5 5 3 2 2 2 5 13 1 9 13 6 5 4 6 11 7 4 7 18 21 9 15 32 20 23 29 25 12
43 38 30 26 16 12 8 3 8 8 8 9 9 9 8 9 8 10 6 3 5 12 7 9 10 4 7 5 5 4 6 8 9 4 14 0 4 27 13 17 34 30 37 24 12
43 39 33 29 23 19 15 7 12 14 14 3 6 6 13 15 10 8 8 6 11 7 4 6 12 11 8 7 12 11 12 9 13 8 19 13 15 10 6 33 51 41 34 23 12
40 35 39 30 27 25 22 8 20 17 11 15 5 7 9 8 6 8 13 12 15 18 16 5 10 4 10 3 4 7 8 2 4 3 5 9 12 5 8 18 27 36 33 22 12
35 28 46 34 27 31 6 26 16 19 11 8 18 17 15 12 12 13 14 11 9 13 8 6 15 0 3 4 4 5 8 5 2 8 14 11 15 17 23 29 17 18 26 17 2
27 16 18 35 35 29 14 18 19 34 17 16 17 15 14 14 17 13 14 8 14 7 13 10 10 4 8 15 19 4 6 6 4 8 9 5 15 9 32 32 24 20 27 18 6
30 9 24 47 19 14 22 16 17 20 73 28 12 17 22 11 12 16 21 21 32 27 19 14 10 10 22 4 4 4 18 21 10 13 8 10 35 9 23 26 34 32 30 21 11
19 33 28 59 13 18 9 16 36 12 19 13 17 20 16 16 12 23 25 7 38 22 20 17 8 5 15 8 7 12 10 9 6 2 37 20 20 4 12 18 35 37 29 21 8
23 7 23 53 41 12 22 28 25 30 46 22 14 19 10 15 19 11 14 5 17 9 22 27 10 18 38 39 8 16 16 17 26 16 44 53 71 23 13 22 25 31 30 17 5
44 18 31 14 31 36 24 12 39 24 26 58 21 40 31 19 16 28 12 3 2 16 15 14 21 15 38 21 11 41 32 32 41 57 36 77 49 59 40 30 31 31 22 1 17
46 18 27 11 34 46 54 52 50 15 27 34 40 29 49 51 39 17 25 16 18 9 14 8 11 7 33 16 30 56 37 41 55 61 59 63 78 54 57 12 28 26 10 7 20
75 56 58 32 22 26 43 56 55 46 37 42 48 40 36 37 49 46 33 18 16 25 25 19 10 7 30 3 15 30 48 59 46 49 51 53 70 51 28 15 26 22 2 12 14
Wind_Direction_500mb
8 9 10 9 9 7 6 6 5 5 6 10 9 12 58 75 61 63 56 45 44 34 32 42 46 19 21 21 33 76 64 315 335 73 121 53 90 65 98 90 77 95 105 110 99
360 1 4 5 4 2 2 2 0 1 1 5 5 6 74 82 61 53 48 39 37 34 34 36 33 37 332 185 23 73 97 251 77 29 116 84 86 76 111 106 102 99 108 123 51
352 354 356 359 0 359 357 357 357 356 357 359 3 4 59 137 66 41 49 44 41 40 35 36 30 358 317 206 192 104 186 250 78 102 74 41 53 357 130 74 180 133 115 101 68
343 347 348 351 354 355 353 352 352 352 352 352 358 4 77 149 182 104 57 45 38 29 31 28 11 348 305 253 170 86 273 144 13 36 52 65 341 90 119 138 140 134 121 101 81
332 338 340 344 348 350 350 347 346 347 346 345 352 1 224 14 207 174 39 30 26 25 29 23 18 344 291 331 294 176 227 227 333 56 90 152 244 159 133 143 148 134 122 104 88
323 327 332 336 339 343 346 342 340 340 339 338 343 354 258 263 234 227 313 326 7 14 16 8 2 322 291 280 144 315 293 267 278 177 185 158 213 180 163 155 135 129 115 107 74
316 320 323 328 331 335 338 340 337 333 331 330 333 325 282 271 250 229 307 352 0 3 4 359 356 319 325 316 283 254 319 40 193 183 215 220 209 223 165 152 134 133 132 119 100
305 311 316 321 324 328 331 334 333 329 325 322 323 300 263 275 228 237 302 337 346 358 360 358 342 332 233 311 317 323 143 125 233 167 220 152 259 208 167 153 147 145 141 132 110
298 303 311 318 323 324 328 332 333 323 315 320 307 290 256 255 237 245 280 330 339 349 351 333 332 8 359 48 355 0 286 287 329 204 150 169 242 228 180 155 154 152 144 136 115
294 299 307 314 323 325 330 335 337 321 354 342 280 300 245 235 253 257 266 304 335 349 335 323 324 57 18 77 250 275 298 292 261 241 192 198 241 259 203 175 164 154 144 135 112
294 298 304 312 324 331 334 351 3 316 314 279 279 263 268 271 262 256 259 296 40 41 12 299 36 259 202 170 214 245 261 252 264 254 218 234 245 244 224 173 161 157 150 146 133
290 294 300 310 321 332 344 23 17 322 302 289 268 265 267 259 252 223 237 206 140 181 348 12 252 196 173 215 221 229 260 267 285 155 280 261 256 253 198 185 173 162 156 148 124
283 288 295 304 314 320 355 7 350 345 297 295 260 252 252 212 223 215 226 203 184 146 152 165 228 176 179 208 230 242 231 258 255 332 294 283 276 203 281 146 161 159 154 134 122
276 282 289 298 304 316 341 344 340 345 43 271 226 213 186 186 259 210 189 168 240 226 188 232 214 174 197 245 177 264 179 217 285 355 241 68 291 257 194 147 165 164 152 136 130
269 274 280 281 265 289 307 323 327 354 359 258 190 177 195 183 136 193 195 178 205 201 103 254 207 210 217 231 158 243 54 247 249 249 357 227 241 271 166 199 191 164 151 140 129
261 259 262 265 261 258 261 289 320 53 248 231 156 184 143 201 208 171 177 253 254 262 237 242 37 178 200 148 189 24 304 264 212 164 259 226 192 227 187 217 166 162 151 145 150
257 256 250 245 238 223 210 218 41 163 278 210 204 173 194 199 212 179 172 197 199 334 298 339 216 108 138 131 19 84 50 319 338 329 239 39 278 246 203 187 169 159 154 150 155
254 259 247 239 227 218 205 68 192 222 238 114 145 151 192 167 221 154 134 251 239 164 330 239 299 170 172 183 189 192 168 169 259 240 287 324 250 239 189 125 136 143 144 146 161
249 250 254 231 228 211 185 193 196 198 215 162 86 187 233 218 206 153 208 209 216 169 186 245 256 64 39 11 148 176 184 159 298 101 7 239 288 321 122 143 138 143 153 158 171
237 243 249 239 214 202 158 226 216 213 144 154 188 183 203 202 179 183 191 202 212 185 141 193 291 82 154 50 337 207 161 83 103 289 276 268 256 230 187 195 175 165 158 161 236
216 252 238 217 205 188 206 222 223 229 178 175 206 226 219 192 193 199 220 255 174 117 124 148 173 202 122 199 187 158 222 231 195 172 236 294 257 234 190 188 180 181 169 171 212
197 230 204 189 179 207 222 193 230 208 232 242 201 219 234 181 248 232 218 205 173 152 160 202 169 236 227 216 272 198 200 187 204 219 243 254 268 184 186 179 169 170 173 175 220
208 218 202 186 210 219 246 220 232 175 207 203 218 215 199 201 246 226 221 159 162 153 171 181 208 337 297 16 335 226 200 214 307 32 242 243 263 136 164 158 172 167 177 184 232
199 209 187 202 226 212 220 239 226 220 228 221 216 189 173 227 224 256 191 213 186 137 159 164 196 202 255 270 131 237 184 203 215 243 254 239 258 229 198 172 168 178 178 176 309
208 223 191 200 218 225 215 221 219 219 215 204 238 220 210 234 189 228 206 131 248 175 168 167 241 193 256 277 266 261 255 227 223 237 234 261 246 258 253 246 225 185 166 177 347
208 193 179 221 202 204 220 231 233 217 199 217 224 205 219 229 220 215 217 192 203 169 160 182 252 169 270 237 253 264 254 245 243 245 244 252 264 257 273 225 161 164 154 1 344
218 226 216 217 199 195 215 224 227 216 247 233 215 228 227 225 229 243 232 210 206 165 182 166 186 143 261 112 323 274 231 231 243 238 230 244 249 274 258 175 165 159 135 337 343
Wind_Speed_850mb
27 30 33 37 40 42 44 47 48 52 54 53 53 41 16 21 25 19 26 23 19 18 15 12 6 11 6 5 5 3 7 5 10 6 8 17 6 14 20 44 44 26 34 32 13
26 29 31 34 37 40 42 44 46 49 52 51 49 39 7 7 18 26 24 25 24 24 22 19 17 10 1 2 3 7 6 3 4 4 6 5 10 3 11 23 42 48 33 16 5
27 30 32 33 35 37 39 41 43 47 50 51 47 38 5 4 5 11 20 22 23 21 23 21 16 12 6 4 3 2 7 2 7 15 13 8 4 7 25 6 7 43 39 21 15
28 29 31 33 35 36 37 39 41 43 46 48 43 30 6 2 1 4 10 20 19 21 23 16 14 4 4 4 6 2 8 1 5 14 10 4 4 9 19 19 34 33 32 26 27
27 30 32 33 35 35 36 37 39 41 43 45 39 24 1 2 2 3 4 9 19 22 19 18 16 10 4 7 2 8 6 4 3 8 6 3 3 9 39 45 33 32 24 26 24
27 29 33 35 36 36 35 37 38 39 42 42 33 17 6 3 6 7 3 4 15 23 24 19 13 11 9 7 3 2 6 10 3 13 8 7 4 9 41 44 36 28 31 22 16
29 30 32 36 38 38 37 36 38 39 38 37 24 10 8 12 9 9 4 3 13 20 23 16 16 8 10 10 5 1 5 7 11 14 7 5 2 14 52 43 46 38 29 22 19
29 32 33 34 39 40 40 39 39 37 36 25 19 8 7 13 13 10 7 6 13 16 21 12 18 8 2 14 8 4 5 4 9 21 10 9 12 13 56 54 49 44 37 33 26
31 32 34 34 37 41 42 42 39 38 22 17 11 9 7 8 16 17 10 9 16 13 19 11 10 5 2 4 9 8 7 6 4 24 9 9 13 20 36 58 53 46 39 34 23
32 32 32 34 35 41 43 44 35 20 4 13 5 7 9 8 13 18 18 12 9 15 12 10 0 5 7 7 6 8 9 9 10 6 14 14 18 14 22 49 55 46 38 26 18
35 33 31 31 32 36 43 42 33 7 30 22 32 33 36 32 25 19 14 9 1 5 6 10 6 9 10 4 5 7 9 14 13 8 10 14 16 21 23 39 51 47 41 31 22
36 33 30 28 28 28 27 19 17 17 26 40 39 39 36 26 9 13 11 6 4 2 6 12 9 10 11 9 10 13 14 16 17 6 2 13 23 22 24 23 59 56 43 34 23
34 34 29 25 23 21 19 19 22 26 13 12 8 8 6 14 7 12 7 4 5 6 4 10 9 8 7 6 8 10 12 10 15 10 13 16 16 10 2 28 49 43 35 26 19
33 33 29 22 17 9 11 17 22 27 8 11 4 4 6 7 4 11 7 3 4 4 4 10 6 7 4 9 12 11 6 4 11 9 8 5 17 5 12 16 18 43 38 27 18
36 33 28 18 13 11 10 11 17 10 9 7 5 5 7 7 1 3 6 1 6 8 9 17 8 12 9 10 10 11 2 10 10 17 7 11 9 12 20 17 21 25 31 25 17
40 34 28 21 17 12 8 7 10 9 14 6 9 7 3 7 5 5 3 2 2 2 5 13 1 9 13 6 5 4 6 11 7 4 7 18 21 9 15 32 20 23 29 25 12
43 38 30 26 16 12 8 3 8 8 8 9 9 9 8 9 8 10 6 3 5 12 7 9 10 4 7 5 5 4 6 8 9 4 14 0 4 27 13 17 34 30 37 24 12
43 39 33 29 23 19 15 7 12 14 14 3 6 6 13 15 10 8 8 6 11 7 4 6 12 11 8 7 12 11 12 9 13 8 19 13 15 10 6 33 51 41 34 23 12
40 35 39 30 27 25 22 8 20 17 11 15 5 7 9 8 6 8 13 12 15 18 16 5 10 4 10 3 4 7 8 2 4 3 5 9 12 5 8 18 27 36 33 22 12
35 28 46 34 27 31 6 26 16 19 11 8 18 17 15 12 12 13 14 11 9 13 8 6 15 0 3 4 4 5 8 5 2 8 14 11 15 17 23 29 17 18 26 17 2
27 16 18 35 35 29 14 18 19 34 17 16 17 15 14 14 17 13 14 8 14 7 13 10 10 4 8 15 19 4 6 6 4 8 9 5 15 9 32 32 24 20 27 18 6
30 9 24 47 19 14 22 16 17 20 73 28 12 17 22 11 12 16 21 21 32 27 19 14 10 10 22 4 4 4 18 21 10 13 8 10 35 9 23 26 34 32 30 21 11
19 33 28 59 13 18 9 16 36 12 19 13 17 20 16 16 12 23 25 7 38 22 20 17 8 5 15 8 7 12 10 9 6 2 37 20 20 4 12 18 35 37 29 21 8
23 7 23 53 41 12 22 28 25 30 46 22 14 19 10 15 19 11 14 5 17 9 22 27 10 18 38 39 8 16 16 17 26 16 44 53 71 23 13 22 25 31 30 17 5
44 18 31 14 31 36 24 12 39 24 26 58 21 40 31 19 16 28 12 3 2 16 15 14 21 15 38 21 11 41 32 32 41 57 36 77 49 59 40 30 31 31 22 1 17
46 18 27 11 34 46 54 52 50 15 27 34 40 29 49 51 39 17 25 16 18 9 14 8 11 7 33 16 30 56 37 41 55 61 59 63 78 54 57 12 28 26 10 7 20
75 56 58 32 22 26 43 56 55 46 37 42 48 40 36 37 49 46 33 18 16 25 25 19 10 7 30 3 15 30 48 59 46 49 51 53 70 51 28 15 26 22 2 12 14
Wind_Direction_850mb
8 9 10 9 9 7 6 6 5 5 6 10 9 12 58 75 61 63 56 45 44 34 32 42 46 19 21 21 33 76 64 315 335 73 121 53 90 65 98 90 77 95 105 110 99
360 1 4 5 4 2 2 2 0 1 1 5 5 6 74 82 61 53 48 39 37 34 34 36 33 37 332 185 23 73 97 251 77 29 116 84 86 76 111 106 102 99 108 123 51
352 354 356 359 0 359 357 357 357 356 357 359 3 4 59 137 66 41 49 44 41 40 35 36 30 358 317 206 192 104 186 250 78 102 74 41 53 357 130 74 180 133 115 101 68
343 347 348 351 354 355 353 352 352 352 352 352 358 4 77 149 182 104 57 45 38 29 31 28 11 348 305 253 170 86 273 144 13 36 52 65 341 90 119 138 140 134 121 101 81
332 338 340 344 348 350 350 347 346 347 346 345 352 1 224 14 207 174 39 30 26 25 29 23 18 344 291 331 294 176 227 227 333 56 90 152 244 159 133 143 148 134 122 104 88
323 327 332 336 339 343 346 342 340 340 339 338 343 354 258 263 234 227 313 326 7 14 16 8 2 322 291 280 144 315 293 267 278 177 185 158 213 180 163 155 135 129 115 107 74
316 320 323 328 331 335 338 340 337 333 331 330 333 325 282 271 250 229 307 352 0 3 4 359 356 319 325 316 283 254 319 40 193 183 215 220 209 223 165 152 134 133 132 119 100
305 311 316 321 324 328 331 334 333 329 325 322 323 300 263 275 228 237 302 337 346 358 360 358 342 332 233 311 317 323 143 125 233 167 220 152 259 208 167 153 147 145 141 132 110
298 303 311 318 323 324 328 332 333 323 315 320 307 290 256 255 237 245 280 330 339 349 351 333 332 8 359 48 355 0 286 287 329 204 150 169 242 228 180 155 154 152 144 136 115
294 299 307 314 323 325 330 335 337 321 354 342 280 300 245 235 253 257 266 304 335 349 335 323 324 57 18 77 250 275 298 292 261 241 192 198 241 259 203 175 164 154 144 135 112
294 298 304 312 324 331 334 351 3 316 314 279 279 263 268 271 262 256 259 296 40 41 12 299 36 259 202 170 214 245 261 252 264 254 218 234 245 244 224 173 161 157 150 146 133
290 294 300 310 321 332 344 23 17 322 302 289 268 265 267 259 252 223 237 206 140 181 348 12 252 196 173 215 221 229 260 267 285 155 280 261 256 253 198 185 173 162 156 148 124
283 288 295 304 314 320 355 7 350 345 297 295 260 252 252 212 223 215 226 203 184 146 152 165 228 176 179 208 230 242 231 258 255 332 294 283 276 203 281 146 161 159 154 134 122
276 282 289 298 304 316 341 344 340 345 43 271 226 213 186 186 259 210 189 168 240 226 188 232 214 174 197 245 177 264 179 217 285 355 241 68 291 257 194 147 165 164 152 136 130
269 274 280 281 265 289 307 323 327 354 359 258 190 177 195 183 136 193 195 178 205 201 103 254 207 210 217 231 158 243 54 247 249 249 357 227 241 271 166 199 191 164 151 140 129
261 259 262 265 261 258 261 289 320 53 248 231 156 184 143 201 208 171 177 253 254 262 237 242 37 178 200 148 189 24 304 264 212 164 259 226 192 227 187 217 166 162 151 145 150
257 256 250 245 238 223 210 218 41 163 278 210 204 173 194 199 212 179 172 197 199 334 298 339 216 108 138 131 19 84 50 319 338 329 239 39 278 246 203 187 169 159 154 150 155
254 259 247 239 227 218 205 68 192 222 238 114 145 151 192 167 221 154 134 251 239 164 330 239 299 170 172 183 189 192 168 169 259 240 287 324 250 239 189 125 136 143 144 146 161
249 250 254 231 228 211 185 193 196 198 215 162 86 187 233 218 206 153 208 209 216 169 186 245 256 64 39 11 148 176 184 159 298 101 7 239 288 321 122 143 138 143 153 158 171
237 243 249 239 214 202 158 226 216 213 144 154 188 183 203 202 179 183 191 202 212 185 141 193 291 82 154 50 337 207 161 83 103 289 276 268 256 230 187 195 175 165 158 161 236
216 252 238 217 205 188 206 222 223 229 178 175 206 226 219 192 193 199 220 255 174 117 124 148 173 202 122 199 187 158 222 231 195 172 236 294 257 234 190 188 180 181 169 171 212
197 230 204 189 179 207 222 193 230 208 232 242 201 219 234 181 248 232 218 205 173 152 160 202 169 236 227 216 272 198 200 187 204 219 243 254 268 184 186 179 169 170 173 175 220
208 218 202 186 210 219 246 220 232 175 207 203 218 215 199 201 246 226 221 159 162 153 171 181 208 337 297 16 335 226 200 214 307 32 242 243 263 136 164 158 172 167 177 184 232
199 209 187 202 226 212 220 239 226 220 228 221 216 189 173 227 224 256 191 213 186 137 159 164 196 202 255 270 131 237 184 203 215 243 254 239 258 229 198 172 168 178 178 176 309
208 223 191 200 218 225 215 221 219 219 215 204 238 220 210 234 189 228 206 131 248 175 168 167 241 193 256 277 266 261 255 227 223 237 234 261 246 258 253 246 225 185 166 177 347
208 193 179 221 202 204 220 231 233 217 199 217 224 205 219 229 220 215 217 192 203 169 160 182 252 169 270 237 253 264 254 245 243 245 244 252 264 257 273 225 161 164 154 1 344
218 226 216 217 199 195 215 224 227 216 247 233 215 228 227 225 229 243 232 210 206 165 182 166 186 143 261 112 323 274 231 231 243 238 230 244 249 274 258 175 165 159 135 337 343